Year,Month,Day,Hour,Minute,Value (Times are PST for temperature in C)
2021,12,27,00,00,-6.40
2021,12,27,00,01,-6.50
2021,12,27,00,02,-6.60
2021,12,27,00,03,-6.60
2021,12,27,00,04,-6.60
2021,12,27,00,05,-6.60
2021,12,27,00,06,-6.60
2021,12,27,00,07,-6.50
2021,12,27,00,08,-6.50
2021,12,27,00,09,-6.60
2021,12,27,00,10,-6.70
2021,12,27,00,11,-6.70
2021,12,27,00,12,-6.70
2021,12,27,00,13,-6.60
2021,12,27,00,14,-6.70
2021,12,27,00,15,-6.70
2021,12,27,00,16,-6.70
2021,12,27,00,17,-6.70
2021,12,27,00,18,-6.70
2021,12,27,00,19,-6.70
2021,12,27,00,20,-6.70
2021,12,27,00,21,-6.70
2021,12,27,00,22,-6.70
2021,12,27,00,23,-6.70
2021,12,27,00,24,-6.70
2021,12,27,00,25,-6.70
2021,12,27,00,26,-6.70
2021,12,27,00,27,-6.70
2021,12,27,00,28,-6.70
2021,12,27,00,29,-6.70
2021,12,27,00,30,-6.70
2021,12,27,00,32,-6.70
2021,12,27,00,33,-6.70
2021,12,27,00,34,-6.70
2021,12,27,00,35,-6.70
2021,12,27,00,36,-6.60
2021,12,27,00,37,-6.60
2021,12,27,00,38,-6.70
2021,12,27,00,39,-6.60
2021,12,27,00,40,-6.60
2021,12,27,00,41,-6.60
2021,12,27,00,42,-6.60
2021,12,27,00,43,-6.60
2021,12,27,00,44,-6.60
2021,12,27,00,45,-6.60
2021,12,27,00,46,-6.50
2021,12,27,00,47,-6.50
2021,12,27,00,48,-6.60
2021,12,27,00,49,-6.60
2021,12,27,00,50,-6.60
2021,12,27,00,51,-6.60
2021,12,27,00,52,-6.60
2021,12,27,00,53,-6.60
2021,12,27,00,54,-6.70
2021,12,27,00,55,-6.70
2021,12,27,00,56,-6.70
2021,12,27,00,57,-6.70
2021,12,27,00,58,-6.70
2021,12,27,00,59,-6.70
2021,12,27,01,00,-6.60
2021,12,27,01,02,-6.60
2021,12,27,01,03,-6.70
2021,12,27,01,04,-6.70
2021,12,27,01,06,-6.70
2021,12,27,01,07,-6.70
2021,12,27,01,08,-6.70
2021,12,27,01,09,-6.70
2021,12,27,01,11,-6.70
2021,12,27,01,12,-6.70
2021,12,27,01,13,-6.70
2021,12,27,01,14,-6.70
2021,12,27,01,16,-6.70
2021,12,27,01,17,-6.80
2021,12,27,01,18,-6.80
2021,12,27,01,19,-6.70
2021,12,27,01,21,-6.70
2021,12,27,01,22,-6.70
2021,12,27,01,23,-6.70
2021,12,27,01,24,-6.70
2021,12,27,01,26,-6.70
2021,12,27,01,27,-6.70
2021,12,27,01,28,-6.70
2021,12,27,01,29,-6.70
2021,12,27,01,31,-6.70
2021,12,27,01,32,-6.70
2021,12,27,01,33,-6.70
2021,12,27,01,34,-6.70
2021,12,27,01,36,-6.70
2021,12,27,01,37,-6.70
2021,12,27,01,38,-6.70
2021,12,27,01,39,-6.70
2021,12,27,01,41,-6.80
2021,12,27,01,42,-6.90
2021,12,27,01,43,-7.00
2021,12,27,01,44,-7.00
2021,12,27,01,46,-7.20
2021,12,27,01,47,-7.20
2021,12,27,01,48,-7.20
2021,12,27,01,49,-7.20
2021,12,27,01,51,-7.30
2021,12,27,01,52,-7.30
2021,12,27,01,53,-7.30
2021,12,27,01,54,-7.30
2021,12,27,01,56,-7.30
2021,12,27,01,57,-7.30
2021,12,27,01,58,-7.30
2021,12,27,01,59,-7.30
2021,12,27,02,01,-7.40
2021,12,27,02,02,-7.40
2021,12,27,02,03,-7.40
2021,12,27,02,04,-7.40
2021,12,27,02,06,-7.40
2021,12,27,02,07,-7.40
2021,12,27,02,08,-7.60
2021,12,27,02,09,-7.60
2021,12,27,02,11,-7.60
2021,12,27,02,12,-7.60
2021,12,27,02,13,-7.60
2021,12,27,02,14,-7.60
2021,12,27,02,15,-7.60
2021,12,27,02,16,-7.60
2021,12,27,02,17,-7.70
2021,12,27,02,18,-7.70
2021,12,27,02,19,-7.70
2021,12,27,02,20,-7.70
2021,12,27,02,21,-7.70
2021,12,27,02,22,-7.70
2021,12,27,02,23,-7.70
2021,12,27,02,24,-7.60
2021,12,27,02,25,-7.70
2021,12,27,02,26,-7.70
2021,12,27,02,27,-7.60
2021,12,27,02,28,-7.60
2021,12,27,02,29,-7.70
2021,12,27,02,30,-7.70
2021,12,27,02,31,-7.70
2021,12,27,02,32,-7.70
2021,12,27,02,33,-7.70
2021,12,27,02,34,-7.70
2021,12,27,02,35,-7.70
2021,12,27,02,36,-7.70
2021,12,27,02,37,-7.70
2021,12,27,02,38,-7.70
2021,12,27,02,39,-7.70
2021,12,27,02,40,-7.70
2021,12,27,02,41,-7.70
2021,12,27,02,42,-7.70
2021,12,27,02,43,-7.70
2021,12,27,02,44,-7.70
2021,12,27,02,45,-7.70
2021,12,27,02,46,-7.70
2021,12,27,02,47,-7.70
2021,12,27,02,48,-7.70
2021,12,27,02,49,-7.70
2021,12,27,02,50,-7.80
2021,12,27,02,51,-7.80
2021,12,27,02,52,-7.80
2021,12,27,02,53,-7.80
2021,12,27,03,29,-7.60
2021,12,27,03,30,-7.60
2021,12,27,03,31,-7.60
2021,12,27,03,32,-7.60
2021,12,27,03,33,-7.60
2021,12,27,03,34,-7.40
2021,12,27,03,35,-7.40
2021,12,27,03,36,-7.30
2021,12,27,03,37,-7.30
2021,12,27,03,38,-7.30
2021,12,27,03,39,-7.30
2021,12,27,03,40,-7.30
2021,12,27,03,41,-7.30
2021,12,27,03,42,-7.30
2021,12,27,03,43,-7.30
2021,12,27,03,44,-7.30
2021,12,27,03,45,-7.40
2021,12,27,03,46,-7.40
2021,12,27,03,47,-7.40
2021,12,27,03,48,-7.40
2021,12,27,03,49,-7.40
2021,12,27,03,50,-7.40
2021,12,27,03,51,-7.40
2021,12,27,03,52,-7.40
2021,12,27,03,53,-7.40
2021,12,27,03,54,-7.40
2021,12,27,03,56,-7.60
2021,12,27,03,57,-7.60
2021,12,27,03,58,-7.60
2021,12,27,03,59,-7.60
2021,12,27,04,01,-7.60
2021,12,27,04,02,-7.60
2021,12,27,04,03,-7.60
2021,12,27,04,04,-7.60
2021,12,27,04,06,-7.40
2021,12,27,04,07,-7.40
2021,12,27,04,08,-7.40
2021,12,27,04,09,-7.40
2021,12,27,04,11,-7.30
2021,12,27,04,12,-7.30
2021,12,27,04,13,-7.40
2021,12,27,04,14,-7.40
2021,12,27,04,16,-7.40
2021,12,27,04,17,-7.40
2021,12,27,04,18,-7.40
2021,12,27,04,19,-7.40
2021,12,27,04,21,-7.30
2021,12,27,04,22,-7.30
2021,12,27,04,23,-7.30
2021,12,27,04,24,-7.30
2021,12,27,04,26,-7.30
2021,12,27,04,27,-7.30
2021,12,27,04,28,-7.30
2021,12,27,04,29,-7.30
2021,12,27,04,31,-7.30
2021,12,27,04,32,-7.30
2021,12,27,04,33,-7.30
2021,12,27,04,34,-7.30
2021,12,27,04,36,-7.30
2021,12,27,04,37,-7.30
2021,12,27,04,38,-7.30
2021,12,27,04,39,-7.20
2021,12,27,04,41,-7.10
2021,12,27,04,42,-7.10
2021,12,27,04,43,-7.10
2021,12,27,04,44,-7.10
2021,12,27,04,46,-7.20
2021,12,27,04,47,-7.20
2021,12,27,04,48,-7.20
2021,12,27,04,49,-7.20
2021,12,27,04,51,-7.20
2021,12,27,04,52,-7.20
2021,12,27,04,53,-7.20
2021,12,27,04,54,-7.20
2021,12,27,04,56,-7.20
2021,12,27,04,57,-7.20
2021,12,27,04,58,-7.20
2021,12,27,04,59,-7.20
2021,12,27,05,01,-7.30
2021,12,27,05,02,-7.20
2021,12,27,05,03,-7.20
2021,12,27,05,04,-7.20
2021,12,27,05,06,-7.30
2021,12,27,05,07,-7.30
2021,12,27,05,08,-7.30
2021,12,27,05,09,-7.30
2021,12,27,05,10,-7.30
2021,12,27,05,11,-7.30
2021,12,27,05,12,-7.40
2021,12,27,05,13,-7.40
2021,12,27,05,14,-7.40
2021,12,27,05,15,-7.30
2021,12,27,05,16,-7.30
2021,12,27,05,17,-7.30
2021,12,27,05,18,-7.40
2021,12,27,05,19,-7.30
2021,12,27,05,20,-7.30
2021,12,27,05,21,-7.40
2021,12,27,05,22,-7.40
2021,12,27,05,23,-7.40
2021,12,27,05,24,-7.60
2021,12,27,05,25,-7.40
2021,12,27,05,26,-7.40
2021,12,27,05,27,-7.60
2021,12,27,05,28,-7.60
2021,12,27,05,29,-7.60
2021,12,27,05,30,-7.60
2021,12,27,05,31,-7.60
2021,12,27,05,32,-7.60
2021,12,27,05,33,-7.60
2021,12,27,05,34,-7.40
2021,12,27,05,35,-7.40
2021,12,27,05,36,-7.40
2021,12,27,05,37,-7.40
2021,12,27,05,38,-7.40
2021,12,27,05,39,-7.30
2021,12,27,05,40,-7.30
2021,12,27,05,41,-7.30
2021,12,27,05,42,-7.30
2021,12,27,05,43,-7.30
2021,12,27,05,44,-7.30
2021,12,27,05,45,-7.30
2021,12,27,05,46,-7.30
2021,12,27,05,47,-7.30
2021,12,27,05,48,-7.30
2021,12,27,05,49,-7.30
2021,12,27,05,50,-7.30
2021,12,27,05,51,-7.30
2021,12,27,05,52,-7.30
2021,12,27,05,53,-7.30
2021,12,27,05,54,-7.30
2021,12,27,05,55,-7.30
2021,12,27,05,56,-7.30
2021,12,27,05,57,-7.20
2021,12,27,05,58,-7.10
2021,12,27,05,59,-7.00
2021,12,27,06,00,-6.90
2021,12,27,06,01,-6.90
2021,12,27,06,02,-6.80
2021,12,27,06,03,-6.80
2021,12,27,06,04,-6.70
2021,12,27,06,05,-6.70
2021,12,27,06,06,-6.70
2021,12,27,06,07,-6.70
2021,12,27,06,08,-6.60
2021,12,27,06,09,-6.60
2021,12,27,06,10,-6.60
2021,12,27,06,11,-6.60
2021,12,27,06,12,-6.60
2021,12,27,06,13,-6.60
2021,12,27,06,14,-6.50
2021,12,27,06,15,-6.50
2021,12,27,06,16,-6.60
2021,12,27,06,17,-6.60
2021,12,27,06,18,-6.60
2021,12,27,06,19,-6.70
2021,12,27,06,20,-6.70
2021,12,27,06,21,-6.80
2021,12,27,06,22,-6.80
2021,12,27,06,23,-6.80
2021,12,27,06,24,-6.80
2021,12,27,06,25,-6.80
2021,12,27,06,26,-6.80
2021,12,27,06,27,-6.90
2021,12,27,06,28,-6.90
2021,12,27,06,29,-6.90
2021,12,27,06,30,-6.90
2021,12,27,06,32,-6.90
2021,12,27,06,33,-6.90
2021,12,27,06,34,-7.00
2021,12,27,06,35,-7.00
2021,12,27,06,36,-7.00
2021,12,27,06,37,-7.10
2021,12,27,06,38,-7.10
2021,12,27,06,39,-7.10
2021,12,27,06,40,-7.10
2021,12,27,06,41,-7.10
2021,12,27,06,42,-7.10
2021,12,27,06,43,-7.10
2021,12,27,06,44,-7.10
2021,12,27,06,45,-7.10
2021,12,27,06,46,-7.10
2021,12,27,06,47,-7.10
2021,12,27,06,48,-7.10
2021,12,27,06,49,-7.10
2021,12,27,06,50,-7.10
2021,12,27,06,51,-7.10
2021,12,27,06,52,-7.10
2021,12,27,06,53,-7.10
2021,12,27,06,54,-7.20
2021,12,27,06,55,-7.20
2021,12,27,06,56,-7.20
2021,12,27,06,57,-7.20
2021,12,27,06,58,-7.20
2021,12,27,06,59,-7.20
2021,12,27,07,00,-7.20
2021,12,27,07,01,-7.20
2021,12,27,07,02,-7.30
2021,12,27,07,03,-7.30
2021,12,27,07,04,-7.30
2021,12,27,07,05,-7.30
2021,12,27,07,06,-7.30
2021,12,27,07,07,-7.30
2021,12,27,07,08,-7.30
2021,12,27,07,09,-7.30
2021,12,27,07,10,-7.30
2021,12,27,07,12,-7.40
2021,12,27,07,13,-7.40
2021,12,27,07,14,-7.40
2021,12,27,07,16,-7.30
2021,12,27,07,17,-7.40
2021,12,27,07,18,-7.40
2021,12,27,07,19,-7.40
2021,12,27,07,21,-7.40
2021,12,27,07,22,-7.40
2021,12,27,07,23,-7.40
2021,12,27,07,24,-7.40
2021,12,27,07,26,-7.30
2021,12,27,07,27,-7.30
2021,12,27,07,28,-7.30
2021,12,27,07,29,-7.30
2021,12,27,07,31,-7.30
2021,12,27,07,32,-7.30
2021,12,27,07,33,-7.30
2021,12,27,07,34,-7.30
2021,12,27,07,36,-7.30
2021,12,27,07,37,-7.30
2021,12,27,07,38,-7.30
2021,12,27,07,39,-7.30
2021,12,27,07,41,-7.30
2021,12,27,07,42,-7.30
2021,12,27,07,43,-7.30
2021,12,27,07,44,-7.30
2021,12,27,07,46,-7.30
2021,12,27,07,47,-7.30
2021,12,27,07,48,-7.30
2021,12,27,07,49,-7.20
2021,12,27,07,51,-7.20
2021,12,27,07,52,-7.20
2021,12,27,07,53,-7.20
2021,12,27,07,54,-7.20
2021,12,27,07,56,-7.10
2021,12,27,07,57,-7.10
2021,12,27,07,58,-7.10
2021,12,27,07,59,-7.10
2021,12,27,08,01,-7.20
2021,12,27,08,02,-7.20
2021,12,27,08,03,-7.20
2021,12,27,08,04,-7.20
2021,12,27,08,06,-7.10
2021,12,27,08,07,-7.10
2021,12,27,08,08,-7.10
2021,12,27,08,09,-7.10
2021,12,27,08,11,-7.00
2021,12,27,08,12,-7.00
2021,12,27,08,13,-7.10
2021,12,27,08,14,-7.10
2021,12,27,08,15,-7.10
2021,12,27,08,16,-7.10
2021,12,27,08,17,-7.20
2021,12,27,08,18,-7.20
2021,12,27,08,19,-7.20
2021,12,27,08,20,-7.20
2021,12,27,08,21,-7.20
2021,12,27,08,22,-7.20
2021,12,27,08,23,-7.20
2021,12,27,08,24,-7.20
2021,12,27,08,25,-7.20
2021,12,27,08,26,-7.20
2021,12,27,08,27,-7.20
2021,12,27,08,28,-7.20
2021,12,27,08,29,-7.20
2021,12,27,08,30,-7.10
2021,12,27,08,31,-7.00
2021,12,27,08,32,-7.00
2021,12,27,08,33,-7.00
2021,12,27,08,34,-7.00
2021,12,27,08,35,-7.00
2021,12,27,08,36,-7.10
2021,12,27,08,37,-7.10
2021,12,27,08,38,-7.10
2021,12,27,08,39,-7.10
2021,12,27,08,40,-7.10
2021,12,27,08,41,-7.10
2021,12,27,08,42,-7.10
2021,12,27,08,43,-7.10
2021,12,27,08,44,-7.10
2021,12,27,08,45,-7.10
2021,12,27,08,46,-7.10
2021,12,27,08,47,-7.10
2021,12,27,08,48,-7.20
2021,12,27,08,49,-7.20
2021,12,27,08,50,-7.20
2021,12,27,08,51,-7.20
2021,12,27,08,52,-7.20
2021,12,27,08,53,-7.20
2021,12,27,08,54,-7.20
2021,12,27,08,55,-7.10
2021,12,27,08,56,-7.10
2021,12,27,08,57,-7.10
2021,12,27,08,58,-7.10
2021,12,27,08,59,-7.10
2021,12,27,09,00,-7.10
2021,12,27,09,01,-7.20
2021,12,27,09,02,-7.10
2021,12,27,09,03,-7.10
2021,12,27,09,04,-7.10
2021,12,27,09,05,-7.10
2021,12,27,09,06,-7.10
2021,12,27,09,07,-7.00
2021,12,27,09,08,-7.00
2021,12,27,09,09,-7.10
2021,12,27,09,10,-7.10
2021,12,27,09,11,-7.10
2021,12,27,09,12,-7.10
2021,12,27,09,13,-7.10
2021,12,27,09,14,-7.10
2021,12,27,09,15,-7.10
2021,12,27,09,16,-7.00
2021,12,27,09,17,-7.00
2021,12,27,09,18,-7.00
2021,12,27,09,19,-7.00
2021,12,27,09,20,-7.00
2021,12,27,09,21,-7.00
2021,12,27,09,22,-7.00
2021,12,27,09,23,-7.00
2021,12,27,09,24,-7.10
2021,12,27,09,25,-7.10
2021,12,27,09,26,-7.10
2021,12,27,09,27,-7.10
2021,12,27,09,28,-7.10
2021,12,27,09,29,-7.10
2021,12,27,09,30,-7.10
2021,12,27,09,31,-7.10
2021,12,27,09,32,-7.10
2021,12,27,09,33,-7.10
2021,12,27,09,34,-7.10
2021,12,27,09,35,-7.10
2021,12,27,09,36,-7.10
2021,12,27,09,37,-7.10
2021,12,27,09,38,-7.10
2021,12,27,09,39,-7.10
2021,12,27,09,40,-7.10
2021,12,27,09,41,-7.20
2021,12,27,09,42,-7.20
2021,12,27,09,43,-7.20
2021,12,27,09,44,-7.20
2021,12,27,09,45,-7.20
2021,12,27,09,46,-7.30
2021,12,27,09,47,-7.30
2021,12,27,09,48,-7.30
2021,12,27,09,49,-7.30
2021,12,27,09,50,-7.30
2021,12,27,09,51,-7.30
2021,12,27,09,52,-7.20
2021,12,27,09,53,-7.20
2021,12,27,09,54,-7.20
2021,12,27,09,55,-7.10
2021,12,27,09,56,-7.10
2021,12,27,09,57,-7.10
2021,12,27,09,58,-7.00
2021,12,27,09,59,-7.00
2021,12,27,10,00,-7.00
2021,12,27,10,01,-7.00
2021,12,27,10,02,-7.00
2021,12,27,10,03,-6.90
2021,12,27,10,04,-6.90
2021,12,27,10,05,-6.90
2021,12,27,10,06,-6.90
2021,12,27,10,07,-6.90
2021,12,27,10,08,-6.90
2021,12,27,10,09,-6.90
2021,12,27,10,10,-6.80
2021,12,27,10,11,-6.80
2021,12,27,10,12,-6.80
2021,12,27,10,13,-6.80
2021,12,27,10,14,-6.80
2021,12,27,10,16,-6.80
2021,12,27,10,17,-6.70
2021,12,27,10,18,-6.70
2021,12,27,10,19,-6.70
2021,12,27,10,20,-6.70
2021,12,27,10,21,-6.70
2021,12,27,10,22,-6.70
2021,12,27,10,23,-6.80
2021,12,27,10,24,-6.80
2021,12,27,10,25,-6.80
2021,12,27,10,26,-6.80
2021,12,27,10,27,-6.80
2021,12,27,10,28,-6.80
2021,12,27,10,29,-6.80
2021,12,27,10,30,-6.70
2021,12,27,10,31,-6.70
2021,12,27,10,32,-6.70
2021,12,27,10,33,-6.70
2021,12,27,10,34,-6.80
2021,12,27,10,35,-6.80
2021,12,27,10,36,-6.80
2021,12,27,10,37,-6.80
2021,12,27,10,38,-6.70
2021,12,27,10,39,-6.70
2021,12,27,10,40,-6.70
2021,12,27,10,41,-6.70
2021,12,27,10,42,-6.70
2021,12,27,10,43,-6.70
2021,12,27,10,44,-6.70
2021,12,27,10,45,-6.70
2021,12,27,10,46,-6.70
2021,12,27,10,47,-6.70
2021,12,27,10,48,-6.70
2021,12,27,10,49,-6.70
2021,12,27,10,50,-6.70
2021,12,27,10,51,-6.70
2021,12,27,10,52,-6.70
2021,12,27,10,53,-6.70
2021,12,27,10,54,-6.70
2021,12,27,10,55,-6.70
2021,12,27,10,56,-6.70
2021,12,27,10,57,-6.70
2021,12,27,10,58,-6.70
2021,12,27,10,59,-6.70
2021,12,27,11,00,-6.70
2021,12,27,11,01,-6.70
2021,12,27,11,02,-6.70
2021,12,27,11,03,-6.60
2021,12,27,11,04,-6.60
2021,12,27,11,05,-6.60
2021,12,27,11,06,-6.60
2021,12,27,11,07,-6.60
2021,12,27,11,08,-6.60
2021,12,27,11,09,-6.60
2021,12,27,11,10,-6.60
2021,12,27,11,11,-6.60
2021,12,27,11,12,-6.60
2021,12,27,11,13,-6.60
2021,12,27,11,14,-6.60
2021,12,27,11,15,-6.60
2021,12,27,11,16,-6.50
2021,12,27,11,17,-6.50
2021,12,27,11,18,-6.50
2021,12,27,11,19,-6.50
2021,12,27,11,20,-6.50
2021,12,27,11,21,-6.40
2021,12,27,11,22,-6.40
2021,12,27,11,23,-6.40
2021,12,27,11,24,-6.40
2021,12,27,11,25,-6.30
2021,12,27,11,26,-6.30
2021,12,27,11,27,-6.30
2021,12,27,11,28,-6.20
2021,12,27,11,29,-6.20
2021,12,27,11,30,-6.20
2021,12,27,11,31,-6.20
2021,12,27,11,32,-6.20
2021,12,27,11,33,-6.20
2021,12,27,11,34,-6.20
2021,12,27,11,35,-6.20
2021,12,27,11,36,-6.20
2021,12,27,11,37,-6.10
2021,12,27,11,38,-6.10
2021,12,27,11,39,-6.10
2021,12,27,11,40,-6.10
2021,12,27,11,41,-6.10
2021,12,27,11,42,-6.10
2021,12,27,11,43,-6.10
2021,12,27,11,44,-6.10
2021,12,27,11,45,-6.10
2021,12,27,11,46,-6.10
2021,12,27,11,47,-6.10
2021,12,27,11,48,-6.10
2021,12,27,11,49,-6.10
2021,12,27,11,50,-6.10
2021,12,27,11,51,-6.10
2021,12,27,11,52,-6.10
2021,12,27,11,53,-6.10
2021,12,27,11,54,-6.10
2021,12,27,11,55,-6.10
2021,12,27,11,56,-6.10
2021,12,27,11,58,-5.90
2021,12,27,11,59,-5.90
2021,12,27,12,01,-5.90
2021,12,27,12,02,-5.90
2021,12,27,12,03,-5.90
2021,12,27,12,04,-5.90
2021,12,27,12,06,-5.90
2021,12,27,12,07,-5.90
2021,12,27,12,08,-5.90
2021,12,27,12,09,-5.90
2021,12,27,12,11,-5.80
2021,12,27,12,12,-5.80
2021,12,27,12,13,-5.80
2021,12,27,12,14,-5.80
2021,12,27,12,16,-5.70
2021,12,27,12,17,-5.60
2021,12,27,12,18,-5.60
2021,12,27,12,19,-5.50
2021,12,27,12,21,-5.50
2021,12,27,12,22,-5.50
2021,12,27,12,23,-5.40
2021,12,27,12,24,-5.40
2021,12,27,12,26,-5.50
2021,12,27,12,27,-5.50
2021,12,27,12,28,-5.50
2021,12,27,12,29,-5.50
2021,12,27,12,30,-5.50
2021,12,27,12,32,-5.50
2021,12,27,12,33,-5.50
2021,12,27,12,34,-5.50
2021,12,27,12,36,-5.50
2021,12,27,12,37,-5.60
2021,12,27,12,38,-5.60
2021,12,27,12,39,-5.60
2021,12,27,12,41,-5.60
2021,12,27,12,42,-5.60
2021,12,27,12,43,-5.70
2021,12,27,12,44,-5.70
2021,12,27,12,46,-5.70
2021,12,27,12,47,-5.70
2021,12,27,12,48,-5.70
2021,12,27,12,49,-5.70
2021,12,27,12,51,-5.70
2021,12,27,12,52,-5.70
2021,12,27,12,53,-5.60
2021,12,27,12,54,-5.60
2021,12,27,12,56,-5.60
2021,12,27,12,57,-5.50
2021,12,27,12,58,-5.50
2021,12,27,12,59,-5.50
2021,12,27,13,01,-5.50
2021,12,27,13,02,-5.50
2021,12,27,13,03,-5.40
2021,12,27,13,04,-5.50
2021,12,27,13,06,-5.50
2021,12,27,13,07,-5.50
2021,12,27,13,08,-5.50
2021,12,27,13,09,-5.50
2021,12,27,13,10,-5.50
2021,12,27,13,11,-5.40
2021,12,27,13,12,-5.40
2021,12,27,13,13,-5.30
2021,12,27,13,14,-5.30
2021,12,27,13,15,-5.30
2021,12,27,13,16,-5.30
2021,12,27,13,17,-5.30
2021,12,27,13,18,-5.20
2021,12,27,13,19,-5.20
2021,12,27,13,20,-5.20
2021,12,27,13,21,-5.20
2021,12,27,13,22,-5.20
2021,12,27,13,23,-5.20
2021,12,27,13,24,-5.20
2021,12,27,13,25,-5.20
2021,12,27,13,26,-5.20
2021,12,27,13,27,-5.20
2021,12,27,13,28,-5.10
2021,12,27,13,29,-5.10
2021,12,27,13,30,-5.10
2021,12,27,13,31,-5.10
2021,12,27,13,32,-5.00
2021,12,27,13,33,-5.00
2021,12,27,13,34,-5.00
2021,12,27,13,35,-5.00
2021,12,27,13,36,-5.00
2021,12,27,13,37,-4.90
2021,12,27,13,38,-4.90
2021,12,27,13,39,-4.90
2021,12,27,13,40,-4.90
2021,12,27,13,41,-5.00
2021,12,27,13,42,-5.00
2021,12,27,13,43,-5.00
2021,12,27,13,44,-5.10
2021,12,27,13,45,-5.10
2021,12,27,13,46,-5.10
2021,12,27,13,47,-5.20
2021,12,27,13,48,-5.20
2021,12,27,13,49,-5.20
2021,12,27,13,50,-5.20
2021,12,27,13,51,-5.20
2021,12,27,13,52,-5.20
2021,12,27,13,53,-5.10
2021,12,27,13,54,-5.10
2021,12,27,13,55,-5.10
2021,12,27,13,56,-5.10
2021,12,27,13,57,-5.10
2021,12,27,13,58,-5.10
2021,12,27,13,59,-5.10
2021,12,27,14,00,-5.00
2021,12,27,14,01,-5.00
2021,12,27,14,02,-5.00
2021,12,27,14,03,-5.00
2021,12,27,14,04,-4.90
2021,12,27,14,05,-4.90
2021,12,27,14,06,-4.90
2021,12,27,14,07,-4.90
2021,12,27,14,08,-4.90
2021,12,27,14,09,-4.90
2021,12,27,14,10,-4.90
2021,12,27,14,11,-4.90
2021,12,27,14,12,-4.90
2021,12,27,14,13,-4.90
2021,12,27,14,14,-4.90
2021,12,27,14,15,-4.80
2021,12,27,14,16,-4.80
2021,12,27,14,17,-4.90
2021,12,27,14,18,-4.90
2021,12,27,14,19,-4.90
2021,12,27,14,20,-4.80
2021,12,27,14,21,-4.80
2021,12,27,14,22,-4.80
2021,12,27,14,23,-4.80
2021,12,27,14,24,-4.80
2021,12,27,14,25,-4.80
2021,12,27,14,26,-4.80
2021,12,27,14,27,-4.80
2021,12,27,14,28,-4.80
2021,12,27,14,29,-4.70
2021,12,27,14,30,-4.70
2021,12,27,14,31,-4.70
2021,12,27,14,32,-4.70
2021,12,27,14,33,-4.70
2021,12,27,14,34,-4.70
2021,12,27,14,35,-4.70
2021,12,27,14,36,-4.70
2021,12,27,14,37,-4.70
2021,12,27,14,38,-4.70
2021,12,27,14,39,-4.70
2021,12,27,14,40,-4.70
2021,12,27,14,41,-4.70
2021,12,27,14,42,-4.70
2021,12,27,14,43,-4.70
2021,12,27,14,44,-4.70
2021,12,27,14,45,-4.70
2021,12,27,14,46,-4.70
2021,12,27,14,47,-4.70
2021,12,27,14,48,-4.70
2021,12,27,14,49,-4.70
2021,12,27,14,50,-4.60
2021,12,27,14,51,-4.60
2021,12,27,14,52,-4.60
2021,12,27,14,53,-4.60
2021,12,27,14,54,-4.60
2021,12,27,14,55,-4.60
2021,12,27,14,56,-4.50
2021,12,27,14,57,-4.50
2021,12,27,14,58,-4.50
2021,12,27,14,59,-4.50
2021,12,27,15,00,-4.50
2021,12,27,15,01,-4.50
2021,12,27,15,02,-4.50
2021,12,27,15,03,-4.50
2021,12,27,15,04,-4.40
2021,12,27,15,05,-4.40
2021,12,27,15,06,-4.50
2021,12,27,15,07,-4.50
2021,12,27,15,08,-4.50
2021,12,27,15,09,-4.50
2021,12,27,15,10,-4.50
2021,12,27,15,11,-4.50
2021,12,27,15,12,-4.50
2021,12,27,15,13,-4.50
2021,12,27,15,14,-4.50
2021,12,27,15,15,-4.60
2021,12,27,15,16,-4.60
2021,12,27,15,18,-4.60
2021,12,27,15,19,-4.60
2021,12,27,15,21,-4.60
2021,12,27,15,22,-4.60
2021,12,27,15,23,-4.60
2021,12,27,15,24,-4.60
2021,12,27,15,26,-4.60
2021,12,27,15,27,-4.60
2021,12,27,15,28,-4.60
2021,12,27,15,29,-4.60
2021,12,27,15,31,-4.60
2021,12,27,15,32,-4.60
2021,12,27,15,33,-4.60
2021,12,27,15,34,-4.60
2021,12,27,15,36,-4.60
2021,12,27,15,37,-4.60
2021,12,27,15,38,-4.60
2021,12,27,15,39,-4.70
2021,12,27,15,41,-4.70
2021,12,27,15,42,-4.70
2021,12,27,15,43,-4.70
2021,12,27,15,44,-4.70
2021,12,27,15,46,-4.70
2021,12,27,15,47,-4.70
2021,12,27,15,48,-4.70
2021,12,27,15,49,-4.70
2021,12,27,15,51,-4.70
2021,12,27,15,52,-4.70
2021,12,27,15,53,-4.70
2021,12,27,15,54,-4.70
2021,12,27,15,56,-4.70
2021,12,27,15,57,-4.70
2021,12,27,15,58,-4.70
2021,12,27,15,59,-4.70
2021,12,27,16,01,-4.70
2021,12,27,16,02,-4.70
2021,12,27,16,03,-4.70
2021,12,27,16,04,-4.70
2021,12,27,16,06,-4.70
2021,12,27,16,07,-4.80
2021,12,27,16,08,-4.80
2021,12,27,16,09,-4.90
2021,12,27,16,11,-4.90
2021,12,27,16,12,-4.90
2021,12,27,16,13,-4.90
2021,12,27,16,14,-4.90
2021,12,27,16,16,-4.80
2021,12,27,16,17,-4.80
2021,12,27,16,18,-4.80
2021,12,27,16,19,-4.80
2021,12,27,16,21,-4.80
2021,12,27,16,22,-4.80
2021,12,27,16,23,-4.80
2021,12,27,16,24,-4.80
2021,12,27,16,26,-4.70
2021,12,27,16,27,-4.70
2021,12,27,16,28,-4.70
2021,12,27,16,29,-4.70
2021,12,27,16,30,-4.70
2021,12,27,16,31,-4.70
2021,12,27,16,32,-4.70
2021,12,27,16,33,-4.70
2021,12,27,16,34,-4.70
2021,12,27,16,36,-4.70
2021,12,27,16,37,-4.70
2021,12,27,16,38,-4.70
2021,12,27,16,39,-4.70
2021,12,27,16,40,-4.70
2021,12,27,16,41,-4.60
2021,12,27,16,42,-4.60
2021,12,27,16,43,-4.60
2021,12,27,16,44,-4.60
2021,12,27,16,45,-4.60
2021,12,27,16,46,-4.60
2021,12,27,16,47,-4.60
2021,12,27,16,48,-4.60
2021,12,27,16,49,-4.60
2021,12,27,16,50,-4.60
2021,12,27,16,51,-4.60
2021,12,27,16,52,-4.60
2021,12,27,16,53,-4.60
2021,12,27,16,54,-4.50
2021,12,27,16,55,-4.50
2021,12,27,16,56,-4.50
2021,12,27,16,57,-4.50
2021,12,27,16,58,-4.50
2021,12,27,16,59,-4.50
2021,12,27,17,00,-4.50
2021,12,27,17,01,-4.50
2021,12,27,17,02,-4.50
2021,12,27,17,03,-4.60
2021,12,27,17,04,-4.60
2021,12,27,17,05,-4.60
2021,12,27,17,06,-4.60
2021,12,27,17,07,-4.60
2021,12,27,17,08,-4.60
2021,12,27,17,09,-4.50
2021,12,27,17,10,-4.50
2021,12,27,17,11,-4.50
2021,12,27,17,12,-4.50
2021,12,27,17,13,-4.50
2021,12,27,17,14,-4.60
2021,12,27,17,15,-4.60
2021,12,27,17,16,-4.60
2021,12,27,17,17,-4.70
2021,12,27,17,18,-4.70
2021,12,27,17,19,-4.70
2021,12,27,17,20,-4.70
2021,12,27,17,21,-4.70
2021,12,27,17,22,-4.70
2021,12,27,17,23,-4.70
2021,12,27,17,24,-4.70
2021,12,27,17,25,-4.70
2021,12,27,17,26,-4.70
2021,12,27,17,27,-4.70
2021,12,27,17,28,-4.70
2021,12,27,17,29,-4.70
2021,12,27,17,30,-4.70
2021,12,27,17,31,-4.70
2021,12,27,17,32,-4.70
2021,12,27,17,33,-4.70
2021,12,27,17,34,-4.70
2021,12,27,17,35,-4.70
2021,12,27,17,36,-4.70
2021,12,27,17,37,-4.70
2021,12,27,17,38,-4.70
2021,12,27,17,39,-4.70
2021,12,27,17,40,-4.70
2021,12,27,17,41,-4.70
2021,12,27,17,42,-4.70
2021,12,27,17,43,-4.70
2021,12,27,17,44,-4.60
2021,12,27,17,45,-4.60
2021,12,27,17,46,-4.60
2021,12,27,17,47,-4.50
2021,12,27,17,48,-4.50
2021,12,27,17,49,-4.50
2021,12,27,17,50,-4.50
2021,12,27,17,51,-4.50
2021,12,27,17,52,-4.50
2021,12,27,17,53,-4.50
2021,12,27,17,54,-4.40
2021,12,27,17,55,-4.40
2021,12,27,17,56,-4.40
2021,12,27,17,57,-4.40
2021,12,27,17,58,-4.40
2021,12,27,17,59,-4.40
2021,12,27,18,00,-4.40
2021,12,27,18,01,-4.40
2021,12,27,18,02,-4.40
2021,12,27,18,03,-4.40
2021,12,27,18,04,-4.30
2021,12,27,18,05,-4.30
2021,12,27,18,06,-4.30
2021,12,27,18,07,-4.30
2021,12,27,18,08,-4.30
2021,12,27,18,09,-4.30
2021,12,27,18,10,-4.40
2021,12,27,18,11,-4.30
2021,12,27,18,12,-4.30
2021,12,27,18,13,-4.30
2021,12,27,18,14,-4.30
2021,12,27,18,15,-4.30
2021,12,27,18,16,-4.30
2021,12,27,18,17,-4.30
2021,12,27,18,18,-4.30
2021,12,27,18,19,-4.30
2021,12,27,18,20,-4.20
2021,12,27,18,21,-4.20
2021,12,27,18,22,-4.20
2021,12,27,18,23,-4.30
2021,12,27,18,24,-4.30
2021,12,27,18,25,-4.30
2021,12,27,18,26,-4.30
2021,12,27,18,27,-4.30
2021,12,27,18,28,-4.30
2021,12,27,18,29,-4.30
2021,12,27,18,30,-4.30
2021,12,27,18,32,-4.20
2021,12,27,18,33,-4.20
2021,12,27,18,34,-4.20
2021,12,27,18,35,-4.20
2021,12,27,18,36,-4.20
2021,12,27,18,37,-4.20
2021,12,27,18,38,-4.20
2021,12,27,18,39,-4.20
2021,12,27,18,40,-4.20
2021,12,27,18,41,-4.20
2021,12,27,18,42,-4.20
2021,12,27,18,43,-4.20
2021,12,27,18,44,-4.20
2021,12,27,18,45,-4.20
2021,12,27,18,46,-4.20
2021,12,27,18,47,-4.20
2021,12,27,18,48,-4.20
2021,12,27,18,49,-4.20
2021,12,27,18,51,-4.20
2021,12,27,18,52,-4.20
2021,12,27,18,53,-4.20
2021,12,27,18,54,-4.20
2021,12,27,18,56,-4.20
2021,12,27,18,57,-4.20
2021,12,27,18,58,-4.20
2021,12,27,18,59,-4.20
2021,12,27,19,01,-4.30
2021,12,27,19,02,-4.30
2021,12,27,19,03,-4.30
2021,12,27,19,04,-4.30
2021,12,27,19,06,-4.20
2021,12,27,19,07,-4.20
2021,12,27,19,08,-4.20
2021,12,27,19,09,-4.20
2021,12,27,19,11,-4.20
2021,12,27,19,12,-4.20
2021,12,27,19,13,-4.20
2021,12,27,19,14,-4.20
2021,12,27,19,16,-4.20
2021,12,27,19,17,-4.20
2021,12,27,19,18,-4.10